Weather History for Prescott, AZ

Change the Weather History Date:

Thursday, December 19, 2013

  Actual Average Record
Temperature  
Mean Temperature 43 °F 38 °F  
Max Temperature 51 °F 50 °F 69 °F (1950)
Min Temperature 35 °F 25 °F 12 °F (1965)
Degree Days  
Heating Degree Days 22    
Month to date heating degree days 520  
Since 1 July heating degree days 1426  
Cooling Degree Days 0    
Month to date cooling degree days 0  
Year to date cooling degree days 1127  
Moisture  
Dew Point 29 °F    
Average Humidity 65    
Maximum Humidity 92    
Minimum Humidity 34    
Precipitation  
Precipitation 0.13 in 0.03 in 1.89 in (1967)
Month to date precipitation 0.26 0.57  
Year to date precipitation 12.89 13.58  
Sea Level Pressure  
Sea Level Pressure 29.68 in    
Wind  
Wind Speed 11 mph (SSE)    
Max Wind Speed 22 mph    
Max Gust Speed 29 mph    
Visibility 9 miles    
Events Rain    
T = Trace of Precipitation, MM = Missing Value Source: NWS Daily Summary

Daily Weather History Graph

Daily Weather History Graph

Search for Another Location

Airport:

Trip Planner

Search our weather history database for the weather conditions in past years. The results will help you decide how hot, cold, wet, or windy it might be!

Date:

Astronomy

Dec. 19, 2013 Rise Set
Actual Time 7:31 AM MST 5:22 PM MST
Civil Twilight 7:03 AM MST 5:50 PM MST
Nautical Twilight 6:32 AM MST 6:21 PM MST
Astronomical Twilight 6:01 AM MST 6:52 PM MST
Moon 7:46 PM MST (12/19) 8:57 AM MST (12/19)
Length of Visible Light 10h 46m
Length of Day
9h 50m
Waning Gibbous, 95% of the Moon is Illuminated
Dec 19
Waning Gibbous
Dec 25
Last Quarter
Jan 1
New
Jan 7
First Quarter
Jan 15
Full

Hourly Weather History & Observations

Time (MST) Temp. Windchill Dew Point Humidity Pressure Visibility Wind Dir Wind Speed Gust Speed Precip Events Conditions
12:53 AM 48.0 °F - 21.9 °F 36% 29.72 in 10.0 mi SSW 11.5 mph - N/A   Clear
1:53 AM 43.0 °F 38.2 °F 21.0 °F 42% 29.70 in 10.0 mi South 8.1 mph - N/A   Clear
2:53 AM 44.1 °F 40.1 °F 23.0 °F 43% 29.69 in 10.0 mi South 6.9 mph - N/A   Clear
3:53 AM 44.1 °F 39.5 °F 24.1 °F 45% 29.68 in 10.0 mi SSW 8.1 mph - N/A   Clear
4:53 AM 36.0 °F 32.1 °F 24.1 °F 62% 29.68 in 10.0 mi NNW 4.6 mph - N/A   Clear
5:53 AM 39.9 °F 35.1 °F 25.0 °F 55% 29.68 in 10.0 mi ESE 6.9 mph - N/A   Clear
6:53 AM 37.9 °F 32.7 °F 25.0 °F 60% 29.69 in 10.0 mi East 6.9 mph - N/A   Clear
7:53 AM 37.0 °F 33.3 °F 26.1 °F 65% 29.70 in 10.0 mi East 4.6 mph - N/A   Clear
8:53 AM 42.1 °F 34.9 °F 27.0 °F 55% 29.64 in 9.0 mi SE 13.8 mph 20.7 mph N/A   Clear
9:53 AM 46.0 °F 39.6 °F 26.1 °F 46% 29.65 in 10.0 mi SSE 15.0 mph - N/A   Scattered Clouds
10:53 AM 48.9 °F - 25.0 °F 39% 29.65 in 10.0 mi SSE 18.4 mph 25.3 mph N/A   Partly Cloudy
11:53 AM 51.1 °F - 24.1 °F 35% 29.64 in 10.0 mi SSE 16.1 mph - N/A   Scattered Clouds
12:53 PM 50.0 °F - 24.1 °F 36% 29.60 in 10.0 mi SSW 18.4 mph 23.0 mph N/A   Scattered Clouds
1:53 PM 50.0 °F - 24.1 °F 36% 29.60 in 10.0 mi SSW 16.1 mph 24.2 mph N/A   Scattered Clouds
2:53 PM 48.9 °F - 26.1 °F 41% 29.60 in 10.0 mi SSW 13.8 mph - N/A   Clear
3:53 PM 46.0 °F 39.6 °F 28.9 °F 51% 29.63 in 10.0 mi SSW 15.0 mph - N/A   Mostly Cloudy
4:53 PM 43.0 °F 37.7 °F 32.0 °F 65% 29.67 in 10.0 mi SW 9.2 mph - N/A   Mostly Cloudy
5:53 PM 39.9 °F 33.9 °F 33.1 °F 77% 29.67 in 10.0 mi SSE 9.2 mph - 0.00 in   Partly Cloudy
6:53 PM 39.9 °F 32.1 °F 34.0 °F 79% 29.69 in 9.0 mi South 13.8 mph - 0.00 in Rain Light Rain
7:53 PM 37.0 °F 31.0 °F 33.1 °F 86% 29.70 in 7.0 mi SSE 8.1 mph - 0.02 in Rain Light Rain
8:43 PM 37.0 °F 29.8 °F 34.0 °F 89% 29.75 in 7.0 mi SE 10.4 mph - 0.00 in Rain Light Rain
8:53 PM 37.0 °F 29.3 °F 34.0 °F 89% 29.68 in 5.0 mi SE 11.5 mph - 0.02 in Rain Rain
9:11 PM 36.0 °F 31.1 °F 33.1 °F 89% 29.75 in 2.5 mi SE 5.8 mph - 0.05 in Rain Rain
9:14 PM 36.0 °F 30.3 °F 33.1 °F 89% 29.75 in 3.0 mi SE 6.9 mph - 0.05 in Rain Rain
9:53 PM 36.0 °F 30.3 °F 33.1 °F 89% 29.68 in 5.0 mi ESE 6.9 mph - 0.07 in Rain Light Rain
10:12 PM 35.1 °F 31.0 °F 32.0 °F 89% 29.74 in 10.0 mi ESE 4.6 mph - 0.00 in   Scattered Clouds
10:42 PM 35.1 °F 32.2 °F 32.0 °F 89% 29.75 in 10.0 mi SE 3.5 mph - 0.00 in   Overcast
10:53 PM 36.0 °F 30.3 °F 32.0 °F 86% 29.66 in 10.0 mi ESE 6.9 mph - 0.00 in   Overcast
11:26 PM 36.0 °F 32.1 °F 33.1 °F 89% 29.74 in 10.0 mi East 4.6 mph - N/A   Overcast
11:53 PM 35.1 °F 32.2 °F 32.0 °F 89% 29.66 in 7.0 mi SE 3.5 mph - 0.01 in Rain Light Rain